| time (UTC) | temp F | wind direction | speed knots | gust knots | rain 1hr in | rain 24hr in | rain mn in | humidity % | barometer mb |
| 20260906122707 | 72 | 43 | 1.7 | 3.5 | 0.00 | 0.00 | 0.00 | 95 | 1015.8 |
| 20260906122203 | 72 | 101 | 2.6 | 4.3 | 0.00 | 0.00 | 0.00 | 96 | 1015.8 |
| 20260906121659 | 72 | 25 | 1.7 | 1.7 | 0.00 | 0.00 | 0.00 | 96 | 1015.7 |
| 20260906121155 | 72 | 32 | 0.9 | 1.7 | 0.00 | 0.00 | 0.00 | 96 | 1015.9 |
| 20260906120651 | 72 | 129 | 0.0 | 1.7 | 0.00 | 0.00 | 0.00 | 96 | 1015.6 |
| 20260906120148 | 72 | 27 | 1.7 | 2.6 | 0.00 | 0.00 | 0.00 | 96 | 1015.5 |
| 20260906115647 | 71 | 18 | 0.9 | 2.6 | 0.00 | 0.00 | 0.00 | 96 | 1015.4 |
| 20260906115143 | 71 | 20 | 1.7 | 3.5 | 0.00 | 0.00 | 0.00 | 96 | 1015.4 |
| 20260906114642 | 71 | 32 | 1.7 | 2.6 | 0.00 | 0.00 | 0.00 | 96 | 1015.6 |
| 20260906114137 | 71 | 65 | 1.7 | 3.5 | 0.00 | 0.00 | 0.00 | 96 | 1015.4 |
| 20260906113637 | 71 | 28 | 0.0 | 0.9 | 0.00 | 0.00 | 0.00 | 96 | 1015.3 |
| 20260906113132 | 71 | 34 | 1.7 | 1.7 | 0.00 | 0.00 | 0.00 | 96 | 1015.4 |
| 20260906112631 | 71 | 62 | 1.7 | 1.7 | 0.00 | 0.00 | 0.00 | 96 | 1015.3 |
| 20260906112129 | 71 | 11 | 1.7 | 3.5 | 0.00 | 0.00 | 0.00 | 96 | 1015.3 |
| 20260906111628 | 71 | 348 | 0.9 | 2.6 | 0.00 | 0.00 | 0.00 | 96 | 1015.0 |
| 20260906111123 | 71 | 40 | 1.7 | 1.7 | 0.00 | 0.00 | 0.00 | 96 | 1015.3 |
| 20260906110618 | 71 | 42 | 1.7 | 2.6 | 0.00 | 0.00 | 0.00 | 96 | 1015.0 |
| 20260906110118 | 71 | 68 | 1.7 | 3.5 | 0.00 | 0.00 | 0.00 | 96 | 1014.9 |
| 20260906105612 | 71 | 55 | 0.0 | 1.7 | 0.00 | 0.00 | 0.00 | 96 | 1015.0 |
| 20260906105108 | 71 | 69 | 0.9 | 2.6 | 0.00 | 0.00 | 0.00 | 96 | 1015.0 |
| 20260906104607 | 71 | 51 | 2.6 | 3.5 | 0.00 | 0.00 | 0.00 | 96 | 1014.7 |
| 20260906104101 | 71 | 55 | 0.0 | 1.7 | 0.00 | 0.00 | 0.00 | 96 | 1014.9 |
| 20260906103600 | 71 | 24 | 1.7 | 2.6 | 0.00 | 0.00 | 0.00 | 96 | 1014.8 |
| 20260906103055 | 71 | 57 | 2.6 | 2.6 | 0.00 | 0.00 | 0.00 | 96 | 1014.9 |
| 20260906102549 | 71 | 20 | 1.7 | 2.6 | 0.00 | 0.00 | 0.00 | 96 | 1014.9 |
| 20260906102044 | 71 | 50 | 0.9 | 2.6 | 0.00 | 0.00 | 0.00 | 95 | 1014.8 |
| 20260906101539 | 71 | 49 | 1.7 | 2.6 | 0.00 | 0.00 | 0.00 | 95 | 1014.8 |
| 20260906101033 | 71 | 52 | 1.7 | 2.6 | 0.00 | 0.00 | 0.00 | 95 | 1014.6 |
| 20260906100529 | 70 | 27 | 0.0 | 2.6 | 0.00 | 0.00 | 0.00 | 95 | 1014.6 |
| 20260906100030 | 71 | 73 | 3.5 | 3.5 | 0.00 | 0.00 | 0.00 | 95 | 1014.7 |
| 20260906095524 | 71 | 51 | 2.6 | 4.3 | 0.00 | 0.00 | 0.00 | 94 | 1014.8 |
| 20260906095020 | 71 | 82 | 2.6 | 4.3 | 0.00 | 0.00 | 0.00 | 94 | 1014.8 |
| 20260906094519 | 71 | 55 | 1.7 | 1.7 | 0.00 | 0.00 | 0.00 | 94 | 1014.7 |
| 20260906094015 | 71 | 23 | 1.7 | 3.5 | 0.00 | 0.00 | 0.00 | 94 | 1014.5 |
| 20260906093511 | 71 | 60 | 3.5 | 4.3 | 0.00 | 0.00 | 0.00 | 93 | 1014.5 |
| 20260906093010 | 71 | 69 | 2.6 | 3.5 | 0.00 | 0.00 | 0.00 | 93 | 1014.3 |
| 20260906092505 | 71 | 32 | 0.9 | 1.7 | 0.00 | 0.00 | 0.00 | 93 | 1014.4 |
| 20260906092001 | 71 | 67 | 2.6 | 2.6 | 0.00 | 0.00 | 0.00 | 92 | 1014.3 |
| 20260906091456 | 71 | 40 | 1.7 | 1.7 | 0.00 | 0.00 | 0.00 | 93 | 1014.3 |
| 20260906090953 | 71 | 39 | 1.7 | 3.5 | 0.00 | 0.00 | 0.00 | 92 | 1014.2 |
| 20260906090448 | 71 | 34 | 1.7 | 3.5 | 0.00 | 0.00 | 0.00 | 92 | 1014.4 |
| 20260906085947 | 71 | 29 | 1.7 | 1.7 | 0.00 | 0.00 | 0.00 | 92 | 1014.2 |
| 20260906085446 | 71 | 87 | 3.5 | 3.5 | 0.00 | 0.00 | 0.00 | 92 | 1014.4 |
| 20260906084946 | 71 | 53 | 1.7 | 4.3 | 0.00 | 0.00 | 0.00 | 92 | 1014.2 |
| 20260906084441 | 71 | 53 | 2.6 | 3.5 | 0.00 | 0.00 | 0.00 | 91 | 1014.4 |
| 20260906083940 | 72 | 39 | 1.7 | 4.3 | 0.00 | 0.00 | 0.00 | 91 | 1014.5 |
| 20260906083436 | 72 | 37 | 1.7 | 2.6 | 0.00 | 0.00 | 0.00 | 91 | 1014.4 |
| 20260906082934 | 72 | 27 | 2.6 | 3.5 | 0.00 | 0.00 | 0.00 | 91 | 1014.5 |
| 20260906082430 | 72 | 96 | 1.7 | 3.5 | 0.00 | 0.00 | 0.00 | 91 | 1014.4 |
| 20260906081926 | 72 | 44 | 1.7 | 3.5 | 0.00 | 0.00 | 0.00 | 91 | 1014.4 |
| 20260906081421 | 72 | 67 | 2.6 | 2.6 | 0.00 | 0.00 | 0.00 | 91 | 1014.5 |
| 20260906080917 | 72 | 83 | 2.6 | 4.3 | 0.00 | 0.00 | 0.00 | 90 | 1014.5 |
| 20260906080414 | 72 | 48 | 1.7 | 3.5 | 0.00 | 0.00 | 0.00 | 90 | 1014.5 |
| 20260906075913 | 72 | 35 | 1.7 | 4.3 | 0.00 | 0.00 | 0.00 | 90 | 1014.5 |
| 20260906075408 | 72 | 63 | 4.3 | 4.3 | 0.00 | 0.00 | 0.00 | 90 | 1014.3 |
| 20260906074903 | 72 | 24 | 1.7 | 3.5 | 0.00 | 0.00 | 0.00 | 90 | 1014.4 |
| 20260906074402 | 72 | 21 | 1.7 | 2.6 | 0.00 | 0.00 | 0.00 | 90 | 1014.4 |
| 20260906073901 | 73 | 30 | 1.7 | 3.5 | 0.00 | 0.00 | 0.00 | 89 | 1014.7 |
| 20260906073356 | 73 | 44 | 1.7 | 3.5 | 0.00 | 0.00 | 0.00 | 89 | 1014.5 |
| 20260906072853 | 73 | 58 | 4.3 | 6.1 | 0.00 | 0.00 | 0.00 | 89 | 1014.4 |
| 20260906072348 | 73 | 44 | 1.7 | 5.2 | 0.00 | 0.00 | 0.00 | 88 | 1014.4 |
| 20260906071845 | 73 | 55 | 0.9 | 2.6 | 0.00 | 0.00 | 0.00 | 88 | 1014.4 |
| 20260906071345 | 73 | 41 | 1.7 | 3.5 | 0.00 | 0.00 | 0.00 | 88 | 1014.3 |
| 20260906070841 | 74 | 15 | 0.0 | 3.5 | 0.00 | 0.00 | 0.00 | 88 | 1014.4 |
| 20260906070337 | 74 | 48 | 1.7 | 1.7 | 0.00 | 0.00 | 0.00 | 88 | 1014.5 |
| 20260906065832 | 74 | 18 | 0.9 | 3.5 | 0.00 | 0.00 | 0.00 | 88 | 1014.4 |
| 20260906065326 | 74 | 60 | 1.7 | 3.5 | 0.00 | 0.00 | 0.00 | 88 | 1014.5 |
| 20260906064822 | 74 | 19 | 0.0 | 3.5 | 0.00 | 0.00 | 0.00 | 87 | 1014.5 |
| 20260906064319 | 75 | 42 | 3.5 | 4.3 | 0.00 | 0.00 | 0.00 | 87 | 1014.4 |
| 20260906063818 | 75 | 75 | 1.7 | 1.7 | 0.00 | 0.00 | 0.00 | 87 | 1014.3 |
| 20260906063314 | 75 | 19 | 0.9 | 3.5 | 0.00 | 0.00 | 0.00 | 87 | 1014.5 |
| 20260906062809 | 75 | 51 | 0.0 | 3.5 | 0.00 | 0.00 | 0.00 | 87 | 1014.4 |
| 20260906062308 | 75 | 51 | 0.0 | 2.6 | 0.00 | 0.00 | 0.00 | 87 | 1014.2 |
| 20260906061804 | 75 | 36 | 1.7 | 2.6 | 0.00 | 0.00 | 0.00 | 87 | 1014.3 |
| 20260906061300 | 76 | 11 | 0.9 | 2.6 | 0.00 | 0.00 | 0.00 | 86 | 1014.3 |
| 20260906060755 | 76 | 33 | 1.7 | 2.6 | 0.00 | 0.00 | 0.00 | 86 | 1014.3 |
| 20260906060252 | 76 | 47 | 1.7 | 2.6 | 0.00 | 0.00 | 0.00 | 86 | 1014.3 |
| 20260906055748 | 76 | 58 | 1.7 | 2.6 | 0.00 | 0.00 | 0.00 | 85 | 1014.4 |
| 20260906055243 | 76 | 31 | 2.6 | 2.6 | 0.00 | 0.00 | 0.00 | 85 | 1014.3 |
| 20260906054738 | 76 | 43 | 1.7 | 2.6 | 0.00 | 0.00 | 0.00 | 85 | 1014.2 |
| 20260906054233 | 77 | 45 | 0.0 | 2.6 | 0.00 | 0.00 | 0.00 | 85 | 1014.2 |
| 20260906053730 | 77 | 25 | 1.7 | 2.6 | 0.00 | 0.00 | 0.00 | 85 | 1014.3 |
| 20260906053225 | 77 | 21 | 0.9 | 1.7 | 0.00 | 0.00 | 0.00 | 85 | 1014.2 |
| 20260906052720 | 77 | 45 | 2.6 | 2.6 | 0.00 | 0.00 | 0.00 | 84 | 1014.1 |
| 20260906052217 | 77 | 24 | 1.7 | 2.6 | 0.00 | 0.00 | 0.00 | 84 | 1013.9 |
| 20260906051714 | 77 | 30 | 1.7 | 2.6 | 0.00 | 0.00 | 0.00 | 84 | 1014.1 |
| 20260906051213 | 78 | 36 | 1.7 | 2.6 | 0.00 | 0.00 | 0.00 | 83 | 1014.0 |
| 20260906050708 | 78 | 47 | 2.6 | 2.6 | 0.00 | 0.00 | 0.00 | 83 | 1014.3 |
| 20260906050203 | 78 | 51 | 2.6 | 2.6 | 0.00 | 0.00 | 0.00 | 83 | 1014.2 |
| 20260906045701 | 78 | 32 | 2.6 | 3.5 | 0.00 | 0.00 | 0.00 | 83 | 1014.1 |
| 20260906045157 | 78 | 42 | 1.7 | 2.6 | 0.00 | 0.00 | 0.00 | 82 | 1014.2 |
| 20260906044653 | 78 | 84 | 0.0 | 2.6 | 0.00 | 0.00 | 0.00 | 82 | 1014.0 |
| 20260906044148 | 79 | 22 | 1.7 | 2.6 | 0.00 | 0.00 | 0.00 | 82 | 1014.3 |
| 20260906043644 | 79 | 45 | 2.6 | 3.5 | 0.00 | 0.00 | 0.00 | 81 | 1014.1 |
| 20260906043139 | 79 | 44 | 1.7 | 2.6 | 0.00 | 0.00 | 0.00 | 81 | 1014.1 |
| 20260906042639 | 79 | 33 | 2.6 | 3.5 | 0.00 | 0.00 | 0.00 | 81 | 1013.9 |
| 20260906042133 | 80 | 32 | 1.7 | 3.5 | 0.00 | 0.00 | 0.00 | 81 | 1013.9 |
| 20260906041630 | 80 | 43 | 1.7 | 3.5 | 0.00 | 0.00 | 0.00 | 81 | 1013.9 |
| 20260906041129 | 80 | 12 | 1.7 | 3.5 | 0.00 | 0.00 | 0.00 | 80 | 1014.0 |
| 20260906040625 | 80 | 43 | 2.6 | 2.6 | 0.00 | 0.00 | 0.00 | 80 | 1013.9 |
| 20260906040120 | 81 | 66 | 3.5 | 3.5 | 0.00 | 0.00 | 0.00 | 79 | 1013.7 |
| 20260906035615 | 81 | 56 | 2.6 | 5.2 | 0.00 | 0.00 | 0.00 | 79 | 1013.7 |
| 20260906035111 | 81 | 3 | 0.0 | 3.5 | 0.00 | 0.00 | 0.00 | 79 | 1013.5 |
| 20260906034611 | 81 | 38 | 3.5 | 3.5 | 0.00 | 0.00 | 0.00 | 79 | 1013.5 |
| 20260906034106 | 82 | 20 | 2.6 | 3.5 | 0.00 | 0.00 | 0.00 | 79 | 1013.5 |
| 20260906033601 | 82 | 355 | 1.7 | 1.7 | 0.00 | 0.00 | 0.00 | 79 | 1013.5 |
| 20260906033056 | 82 | 27 | 1.7 | 3.5 | 0.00 | 0.00 | 0.00 | 79 | 1013.4 |
| 20260906032554 | 83 | 58 | 5.2 | 6.1 | 0.00 | 0.00 | 0.00 | 78 | 1013.3 |
| 20260906032053 | 83 | 6 | 1.7 | 2.6 | 0.00 | 0.00 | 0.00 | 79 | 1013.2 |
| 20260906031549 | 83 | 67 | 3.5 | 3.5 | 0.00 | 0.00 | 0.00 | 79 | 1013.2 |
| 20260906031044 | 84 | 13 | 0.0 | 1.7 | 0.00 | 0.00 | 0.00 | 79 | 1013.2 |
| 20260906030543 | 84 | 318 | 0.9 | 1.7 | 0.00 | 0.00 | 0.00 | 78 | 1013.2 |
| 20260906030044 | 84 | 25 | 1.7 | 1.7 | 0.00 | 0.00 | 0.00 | 78 | 1013.1 |
| 20260906025543 | 84 | 352 | 0.9 | 2.6 | 0.00 | 0.00 | 0.00 | 77 | 1012.9 |
| 20260906025042 | 84 | 351 | 0.9 | 1.7 | 0.00 | 0.00 | 0.00 | 77 | 1012.8 |
| 20260906024538 | 84 | 46 | 2.6 | 3.5 | 0.00 | 0.00 | 0.00 | 76 | 1012.7 |
| 20260906024037 | 84 | 2 | 0.9 | 2.6 | 0.00 | 0.00 | 0.00 | 77 | 1012.7 |
| 20260906023533 | 84 | 357 | 0.9 | 1.7 | 0.00 | 0.00 | 0.00 | 77 | 1012.6 |
| 20260906023028 | 84 | 15 | 0.0 | 1.7 | 0.00 | 0.00 | 0.00 | 77 | 1012.7 |
| 20260906022523 | 84 | 23 | 0.0 | 1.7 | 0.00 | 0.00 | 0.00 | 78 | 1012.5 |
| 20260906022019 | 84 | 341 | 0.9 | 1.7 | 0.00 | 0.00 | 0.00 | 78 | 1012.6 |
| 20260906021515 | 84 | 1 | 0.0 | 0.9 | 0.00 | 0.00 | 0.00 | 77 | 1012.5 |
| 20260906021008 | 84 | 6 | 0.0 | 1.7 | 0.00 | 0.00 | 0.00 | 76 | 1012.5 |
| 20260906020507 | 84 | 321 | 0.9 | 1.7 | 0.00 | 0.00 | 0.00 | 76 | 1012.5 |
| 20260906020007 | 84 | 339 | 0.9 | 0.9 | 0.00 | 0.00 | 0.00 | 76 | 1012.4 |
| 20260906015507 | 84 | 304 | 0.0 | 0.9 | 0.00 | 0.00 | 0.00 | 75 | 1012.1 |
| 20260906015006 | 84 | 329 | 0.9 | 0.9 | 0.00 | 0.00 | 0.00 | 75 | 1012.2 |
| 20260906014501 | 85 | 341 | 0.9 | 0.9 | 0.00 | 0.00 | 0.00 | 74 | 1012.2 |
| 20260906013957 | 85 | 339 | 0.9 | 0.9 | 0.00 | 0.00 | 0.00 | 74 | 1012.2 |
| 20260906013452 | 85 | 343 | 0.0 | 0.9 | 0.00 | 0.00 | 0.00 | 73 | 1012.1 |
| 20260906012948 | 85 | 333 | 0.0 | 0.9 | 0.00 | 0.00 | 0.00 | 73 | 1012.1 |
| 20260906012448 | 86 | 322 | 0.0 | 0.9 | 0.00 | 0.00 | 0.00 | 72 | 1011.9 |
| 20260906011948 | 86 | 333 | 0.0 | 0.9 | 0.00 | 0.00 | 0.00 | 72 | 1011.9 |
| 20260906011443 | 86 | 326 | 0.0 | 0.9 | 0.00 | 0.00 | 0.00 | 71 | 1011.8 |
| 20260906010938 | 86 | 333 | 0.0 | 0.9 | 0.00 | 0.00 | 0.00 | 70 | 1011.8 |
| 20260906010434 | 87 | 324 | 0.9 | 0.9 | 0.00 | 0.00 | 0.00 | 70 | 1011.7 |
| 20260906005930 | 87 | 304 | 0.0 | 0.9 | 0.00 | 0.00 | 0.00 | 69 | 1011.7 |
| 20260906005429 | 87 | 15 | 0.0 | 0.9 | 0.00 | 0.00 | 0.00 | 68 | 1011.7 |
| 20260906004928 | 87 | 37 | 0.0 | 0.9 | 0.00 | 0.00 | 0.00 | 68 | 1011.7 |
| 20260906004422 | 87 | 326 | 0.0 | 0.9 | 0.00 | 0.00 | 0.00 | 68 | 1011.7 |
| 20260906003918 | 87 | 343 | 0.0 | 0.9 | 0.00 | 0.00 | 0.00 | 67 | 1011.6 |
| 20260906003413 | 88 | 335 | 0.0 | 0.9 | 0.00 | 0.00 | 0.00 | 67 | 1011.8 |
| 20260906002909 | 88 | 326 | 0.0 | 1.7 | 0.00 | 0.00 | 0.00 | 66 | 1011.6 |
| 20260906002408 | 88 | 0 | 0.0 | 1.7 | 0.00 | 0.00 | 0.00 | 66 | 1011.5 |
| 20260906001904 | 89 | 330 | 0.9 | 1.7 | 0.00 | 0.00 | 0.00 | 65 | 1011.7 |
| 20260906001359 | 89 | 323 | 0.9 | 1.7 | 0.00 | 0.00 | 0.00 | 64 | 1011.6 |
| 20260906000859 | 89 | 304 | 0.0 | 1.7 | 0.00 | 0.00 | 0.00 | 64 | 1011.7 |
| 20260906000400 | 90 | 345 | 0.9 | 0.9 | 0.00 | 0.00 | 0.00 | 63 | 1011.8 |
| 20260905235854 | 90 | 318 | 0.0 | 0.9 | 0.00 | 0.00 | 0.00 | 62 | 1011.7 |
| 20260905235349 | 90 | 312 | 0.0 | 1.7 | 0.00 | 0.00 | 0.00 | 62 | 1011.5 |
| 20260905234844 | 91 | 315 | 0.9 | 1.7 | 0.00 | 0.00 | 0.00 | 61 | 1011.7 |
| 20260905234339 | 91 | 309 | 0.9 | 1.7 | 0.00 | 0.00 | 0.00 | 60 | 1011.5 |
| 20260905233834 | 91 | 297 | 0.0 | 0.9 | 0.00 | 0.00 | 0.00 | 59 | 1011.5 |
| 20260905233329 | 91 | 343 | 0.9 | 1.7 | 0.00 | 0.00 | 0.00 | 59 | 1011.5 |
| 20260905232828 | 92 | 320 | 0.9 | 1.7 | 0.00 | 0.00 | 0.00 | 59 | 1011.7 |
| 20260905232325 | 92 | 333 | 0.0 | 1.7 | 0.00 | 0.00 | 0.00 | 58 | 1011.7 |
| 20260905231820 | 92 | 317 | 0.9 | 1.7 | 0.00 | 0.00 | 0.00 | 58 | 1011.5 |
| 20260905231315 | 93 | 322 | 0.0 | 1.7 | 0.00 | 0.00 | 0.00 | 56 | 1011.5 |
| 20260905230812 | 94 | 316 | 0.0 | 1.7 | 0.00 | 0.00 | 0.00 | 55 | 1011.5 |
| 20260905230309 | 94 | 305 | 1.7 | 1.7 | 0.00 | 0.00 | 0.00 | 54 | 1011.6 |
| 20260905225809 | 96 | 283 | 0.9 | 1.7 | 0.00 | 0.00 | 0.00 | 51 | 1011.6 |
| 20260905225306 | 98 | 308 | 1.7 | 1.7 | 0.00 | 0.00 | 0.00 | 49 | 1011.5 |
| 20260905224804 | 100 | 315 | 0.9 | 1.7 | 0.00 | 0.00 | 0.00 | 47 | 1011.6 |
| 20260905224259 | 100 | 308 | 0.9 | 1.7 | 0.00 | 0.00 | 0.00 | 46 | 1011.3 |
| 20260905223754 | 99 | 313 | 0.9 | 0.9 | 0.00 | 0.00 | 0.00 | 48 | 1011.3 |
| 20260905223252 | 98 | 326 | 0.9 | 1.7 | 0.00 | 0.00 | 0.00 | 49 | 1011.3 |
| 20260905222747 | 98 | 316 | 0.9 | 1.7 | 0.00 | 0.00 | 0.00 | 47 | 1011.2 |
| 20260905222246 | 98 | 316 | 1.7 | 1.7 | 0.00 | 0.00 | 0.00 | 48 | 1011.6 |
| 20260905221742 | 99 | 301 | 0.9 | 1.7 | 0.00 | 0.00 | 0.00 | 45 | 1011.2 |
| 20260905221239 | 98 | 316 | 1.7 | 1.7 | 0.00 | 0.00 | 0.00 | 45 | 1011.2 |
| 20260905220734 | 98 | 332 | 0.9 | 1.7 | 0.00 | 0.00 | 0.00 | 48 | 1011.0 |
| 20260905220230 | 97 | 327 | 0.0 | 2.6 | 0.00 | 0.00 | 0.00 | 50 | 1011.0 |
| 20260905215729 | 97 | 311 | 0.0 | 1.7 | 0.00 | 0.00 | 0.00 | 49 | 1011.3 |
| 20260905215226 | 98 | 301 | 0.9 | 1.7 | 0.00 | 0.00 | 0.00 | 47 | 1011.2 |
| 20260905214721 | 98 | 302 | 0.9 | 1.7 | 0.00 | 0.00 | 0.00 | 47 | 1011.3 |
| 20260905214216 | 98 | 304 | 0.9 | 1.7 | 0.00 | 0.00 | 0.00 | 47 | 1011.3 |
| 20260905213712 | 98 | 255 | 0.9 | 1.7 | 0.00 | 0.00 | 0.00 | 46 | 1011.3 |
| 20260905213208 | 97 | 319 | 0.9 | 1.7 | 0.00 | 0.00 | 0.00 | 48 | 1011.3 |
| 20260905212703 | 96 | 286 | 0.0 | 1.7 | 0.00 | 0.00 | 0.00 | 50 | 1011.5 |
| 20260905212202 | 94 | 309 | 0.0 | 0.9 | 0.00 | 0.00 | 0.00 | 54 | 1011.5 |
| 20260905211656 | 94 | 315 | 0.0 | 1.7 | 0.00 | 0.00 | 0.00 | 59 | 1011.6 |
| 20260905211152 | 95 | 327 | 0.0 | 1.7 | 0.00 | 0.00 | 0.00 | 57 | 1011.3 |
| 20260905210648 | 96 | 300 | 0.0 | 0.9 | 0.00 | 0.00 | 0.00 | 55 | 1011.3 |
| 20260905210143 | 96 | 328 | 0.9 | 0.9 | 0.00 | 0.00 | 0.00 | 54 | 1011.7 |
| 20260905205642 | 97 | 312 | 0.9 | 0.9 | 0.00 | 0.00 | 0.00 | 52 | 1011.6 |
| 20260905205141 | 96 | 324 | 0.9 | 1.7 | 0.00 | 0.00 | 0.00 | 49 | 1011.7 |
| 20260905204640 | 95 | 309 | 1.7 | 2.6 | 0.00 | 0.00 | 0.00 | 48 | 1011.6 |
| 20260905204136 | 95 | 321 | 0.0 | 1.7 | 0.00 | 0.00 | 0.00 | 50 | 1011.6 |
| 20260905203637 | 96 | 316 | 0.9 | 1.7 | 0.00 | 0.00 | 0.00 | 49 | 1011.5 |
| 20260905203132 | 97 | 309 | 0.9 | 1.7 | 0.00 | 0.00 | 0.00 | 48 | 1011.6 |
| 20260905202627 | 97 | 311 | 0.9 | 1.7 | 0.00 | 0.00 | 0.00 | 47 | 1011.6 |
| 20260905202123 | 98 | 333 | 0.9 | 1.7 | 0.00 | 0.00 | 0.00 | 46 | 1011.6 |
| 20260905201619 | 99 | 320 | 1.7 | 3.5 | 0.00 | 0.00 | 0.00 | 46 | 1011.6 |
| 20260905201118 | 100 | 325 | 1.7 | 3.5 | 0.00 | 0.00 | 0.00 | 44 | 1011.9 |
| 20260905200614 | 100 | 311 | 0.9 | 1.7 | 0.00 | 0.00 | 0.00 | 45 | 1011.7 |
| 20260905200109 | 99 | 277 | 0.9 | 2.6 | 0.00 | 0.00 | 0.00 | 47 | 1012.0 |
| 20260905195607 | 99 | 297 | 0.0 | 1.7 | 0.00 | 0.00 | 0.00 | 45 | 1011.8 |
| 20260905195103 | 100 | 330 | 1.7 | 1.7 | 0.00 | 0.00 | 0.00 | 44 | 1011.8 |
| 20260905194602 | 101 | 335 | 1.7 | 2.6 | 0.00 | 0.00 | 0.00 | 43 | 1011.9 |
| 20260905194102 | 100 | 312 | 1.7 | 4.3 | 0.00 | 0.00 | 0.00 | 43 | 1011.6 |
| 20260905193557 | 100 | 353 | 1.7 | 1.7 | 0.00 | 0.00 | 0.00 | 47 | 1012.1 |
| 20260905193052 | 101 | 296 | 1.7 | 3.5 | 0.00 | 0.00 | 0.00 | 44 | 1012.0 |
| 20260905192547 | 102 | 315 | 1.7 | 3.5 | 0.00 | 0.00 | 0.00 | 42 | 1012.0 |
| 20260905192044 | 102 | 272 | 1.7 | 2.6 | 0.00 | 0.00 | 0.00 | 39 | 1012.1 |
| 20260905191542 | 101 | 284 | 0.0 | 1.7 | 0.00 | 0.00 | 0.00 | 42 | 1012.0 |
| 20260905191042 | 102 | 315 | 0.0 | 1.7 | 0.00 | 0.00 | 0.00 | 41 | 1012.0 |
| 20260905190540 | 101 | 268 | 1.7 | 2.6 | 0.00 | 0.00 | 0.00 | 41 | 1012.2 |
| 20260905190039 | 101 | 290 | 1.7 | 3.5 | 0.00 | 0.00 | 0.00 | 43 | 1012.3 |
| 20260905185539 | 101 | 311 | 1.7 | 2.6 | 0.00 | 0.00 | 0.00 | 46 | 1012.1 |
| 20260905185038 | 102 | 300 | 0.9 | 2.6 | 0.00 | 0.00 | 0.00 | 40 | 1012.4 |
| 20260905184539 | 101 | 332 | 0.9 | 1.7 | 0.00 | 0.00 | 0.00 | 43 | 1012.5 |
| 20260905184038 | 100 | 307 | 1.7 | 1.7 | 0.00 | 0.00 | 0.00 | 46 | 1012.7 |
| 20260905183537 | 100 | 287 | 1.7 | 3.5 | 0.00 | 0.00 | 0.00 | 45 | 1012.8 |
| 20260905183033 | 99 | 317 | 1.7 | 2.6 | 0.00 | 0.00 | 0.00 | 48 | 1012.7 |
| 20260905182533 | 99 | 278 | 0.9 | 1.7 | 0.00 | 0.00 | 0.00 | 44 | 1012.6 |
| 20260905182032 | 100 | 309 | 1.7 | 2.6 | 0.00 | 0.00 | 0.00 | 44 | 1012.8 |
| 20260905181527 | 100 | 324 | 1.7 | 1.7 | 0.00 | 0.00 | 0.00 | 44 | 1012.7 |
| 20260905181026 | 99 | 305 | 1.7 | 1.7 | 0.00 | 0.00 | 0.00 | 43 | 1013.0 |
| 20260905180521 | 99 | 255 | 1.7 | 2.6 | 0.00 | 0.00 | 0.00 | 43 | 1012.7 |
| 20260905180017 | 100 | 349 | 1.7 | 3.5 | 0.00 | 0.00 | 0.00 | 44 | 1012.9 |
| 20260905175516 | 101 | 279 | 1.7 | 2.6 | 0.00 | 0.00 | 0.00 | 45 | 1012.9 |
| 20260905175012 | 101 | 320 | 3.5 | 3.5 | 0.00 | 0.00 | 0.00 | 43 | 1013.0 |
| 20260905174507 | 100 | 315 | 1.7 | 1.7 | 0.00 | 0.00 | 0.00 | 45 | 1013.0 |
| 20260905174003 | 100 | 318 | 1.7 | 2.6 | 0.00 | 0.00 | 0.00 | 44 | 1012.9 |
| 20260905173459 | 101 | 2 | 0.0 | 1.7 | 0.00 | 0.00 | 0.00 | 44 | 1013.0 |
| 20260905172954 | 101 | 294 | 1.7 | 2.6 | 0.00 | 0.00 | 0.00 | 43 | 1012.9 |
| 20260905172452 | 101 | 310 | 1.7 | 2.6 | 0.00 | 0.00 | 0.00 | 42 | 1012.9 |
| 20260905171948 | 101 | 310 | 1.7 | 2.6 | 0.00 | 0.00 | 0.00 | 46 | 1013.3 |
| 20260905171444 | 100 | 303 | 1.7 | 1.7 | 0.00 | 0.00 | 0.00 | 48 | 1013.2 |
| 20260905170940 | 101 | 330 | 1.7 | 1.7 | 0.00 | 0.00 | 0.00 | 44 | 1013.1 |
| 20260905170436 | 101 | 324 | 1.7 | 1.7 | 0.00 | 0.00 | 0.00 | 44 | 1013.2 |
| 20260905165936 | 101 | 292 | 1.7 | 2.6 | 0.00 | 0.00 | 0.00 | 50 | 1013.2 |
| 20260905165431 | 100 | 324 | 1.7 | 1.7 | 0.00 | 0.00 | 0.00 | 50 | 1013.4 |
| 20260905164926 | 98 | 310 | 1.7 | 2.6 | 0.00 | 0.00 | 0.00 | 48 | 1013.4 |
| 20260905164426 | 98 | 306 | 1.7 | 4.3 | 0.00 | 0.00 | 0.00 | 48 | 1013.3 |
| 20260905163921 | 100 | 278 | 1.7 | 1.7 | 0.00 | 0.00 | 0.00 | 46 | 1013.5 |
| 20260905163417 | 99 | 309 | 1.7 | 1.7 | 0.00 | 0.00 | 0.00 | 47 | 1013.4 |
| 20260905162913 | 100 | 305 | 0.9 | 1.7 | 0.00 | 0.00 | 0.00 | 46 | 1013.5 |
| 20260905162408 | 99 | 312 | 1.7 | 2.6 | 0.00 | 0.00 | 0.00 | 47 | 1013.4 |
| 20260905161903 | 98 | 319 | 1.7 | 1.7 | 0.00 | 0.00 | 0.00 | 50 | 1013.3 |
| 20260905161401 | 97 | 336 | 0.0 | 1.7 | 0.00 | 0.00 | 0.00 | 50 | 1013.5 |
| 20260905160900 | 96 | 309 | 0.9 | 3.5 | 0.00 | 0.00 | 0.00 | 53 | 1013.5 |
| 20260905160354 | 96 | 280 | 1.7 | 2.6 | 0.00 | 0.00 | 0.00 | 54 | 1013.5 |
| 20260905155849 | 96 | 268 | 1.7 | 2.6 | 0.00 | 0.00 | 0.00 | 51 | 1013.6 |
| 20260905155348 | 98 | 291 | 0.9 | 1.7 | 0.00 | 0.00 | 0.00 | 52 | 1013.5 |
| 20260905154848 | 96 | 289 | 0.9 | 1.7 | 0.00 | 0.00 | 0.00 | 53 | 1013.6 |
| 20260905154343 | 96 | 271 | 1.7 | 2.6 | 0.00 | 0.00 | 0.00 | 51 | 1013.7 |
| 20260905153838 | 96 | 320 | 0.9 | 1.7 | 0.00 | 0.00 | 0.00 | 51 | 1013.7 |
| 20260905153335 | 97 | 327 | 1.7 | 2.6 | 0.00 | 0.00 | 0.00 | 50 | 1013.8 |
| 20260905152835 | 97 | 285 | 0.9 | 1.7 | 0.00 | 0.00 | 0.00 | 54 | 1013.4 |
| 20260905152334 | 96 | 301 | 0.9 | 1.7 | 0.00 | 0.00 | 0.00 | 54 | 1013.6 |
| 20260905151829 | 97 | 92 | 0.9 | 1.7 | 0.00 | 0.00 | 0.00 | 51 | 1013.7 |
| 20260905151325 | 95 | 313 | 1.7 | 1.7 | 0.00 | 0.00 | 0.00 | 56 | 1013.8 |
| 20260905150824 | 94 | 292 | 1.7 | 1.7 | 0.00 | 0.00 | 0.00 | 56 | 1013.9 |
| 20260905150319 | 93 | 322 | 0.0 | 1.7 | 0.00 | 0.00 | 0.00 | 57 | 1013.6 |
| 20260905145817 | 93 | 311 | 1.7 | 1.7 | 0.00 | 0.00 | 0.00 | 56 | 1013.6 |
| 20260905145316 | 94 | 312 | 0.9 | 2.6 | 0.00 | 0.00 | 0.00 | 55 | 1013.7 |
| 20260905144815 | 94 | 308 | 0.9 | 1.7 | 0.00 | 0.00 | 0.00 | 57 | 1013.6 |
| 20260905144311 | 93 | 326 | 1.7 | 1.7 | 0.00 | 0.00 | 0.00 | 56 | 1013.7 |
| 20260905143810 | 93 | 323 | 1.7 | 1.7 | 0.00 | 0.00 | 0.00 | 58 | 1013.6 |
| 20260905143304 | 92 | 309 | 0.0 | 1.7 | 0.00 | 0.00 | 0.00 | 59 | 1013.6 |
| 20260905142803 | 92 | 311 | 1.7 | 2.6 | 0.00 | 0.00 | 0.00 | 60 | 1013.4 |
| 20260905142257 | 92 | 289 | 0.9 | 1.7 | 0.00 | 0.00 | 0.00 | 59 | 1013.5 |
| 20260905141754 | 91 | 287 | 0.9 | 1.7 | 0.00 | 0.00 | 0.00 | 60 | 1013.7 |
| 20260905141249 | 90 | 333 | 0.9 | 1.7 | 0.00 | 0.00 | 0.00 | 60 | 1013.6 |
| 20260905140744 | 90 | 331 | 0.9 | 1.7 | 0.00 | 0.00 | 0.00 | 61 | 1013.5 |
| 20260905140244 | 90 | 328 | 0.9 | 1.7 | 0.00 | 0.00 | 0.00 | 61 | 1013.6 |
| 20260905135743 | 89 | 337 | 0.9 | 1.7 | 0.00 | 0.00 | 0.00 | 63 | 1013.7 |
| 20260905135240 | 89 | 321 | 0.9 | 1.7 | 0.00 | 0.00 | 0.00 | 66 | 1013.6 |
| 20260905134739 | 87 | 15 | 0.0 | 1.7 | 0.00 | 0.00 | 0.00 | 67 | 1013.8 |
| 20260905134239 | 86 | 319 | 0.0 | 1.7 | 0.00 | 0.00 | 0.00 | 69 | 1013.5 |
| 20260905133733 | 85 | 337 | 0.9 | 0.9 | 0.00 | 0.00 | 0.00 | 76 | 1013.7 |
| 20260905133229 | 82 | 343 | 0.9 | 0.9 | 0.00 | 0.00 | 0.00 | 78 | 1013.8 |
| 20260905132727 | 81 | 6 | 0.0 | 0.0 | 0.00 | 0.00 | 0.00 | 85 | 1013.8 |
| 20260905132223 | 80 | 25 | 0.0 | 0.0 | 0.00 | 0.00 | 0.00 | 86 | 1013.7 |
| 20260905131718 | 80 | 338 | 0.9 | 0.9 | 0.00 | 0.00 | 0.00 | 87 | 1013.7 |
| 20260905131213 | 79 | 354 | 0.0 | 0.9 | 0.00 | 0.00 | 0.00 | 88 | 1013.8 |
| 20260905130708 | 79 | 25 | 0.0 | 0.9 | 0.00 | 0.00 | 0.00 | 89 | 1013.7 |
| 20260905130207 | 78 | 25 | 0.0 | 0.0 | 0.00 | 0.00 | 0.00 | 90 | 1013.8 |
| 20260905125702 | 77 | 336 | 0.0 | 0.9 | 0.00 | 0.00 | 0.00 | 89 | 1013.8 |
| 20260905125158 | 77 | 336 | 0.0 | 0.9 | 0.00 | 0.00 | 0.00 | 89 | 1013.5 |
| 20260905124654 | 77 | 32 | 0.0 | 0.9 | 0.00 | 0.00 | 0.00 | 89 | 1013.7 |
| 20260905124149 | 77 | 37 | 0.0 | 1.7 | 0.00 | 0.00 | 0.00 | 91 | 1013.4 |
| 20260905123644 | 76 | 322 | 0.9 | 1.7 | 0.00 | 0.00 | 0.00 | 91 | 1013.6 |
| 20260905123142 | 75 | 19 | 1.7 | 1.7 | 0.00 | 0.00 | 0.00 | 92 | 1013.2 |